Beatrice, NE

8:48 PM CDT on September 23, 2017 (GMT -0500)
Beatrice Municipal

Weather History for KBIE - December, 2013

Change the Weather History Date:

Wednesday, December 25, 2013

  Actual Average Record
Temperature  
Mean Temperature 27 °F -  
Max Temperature 43 °F 36 °F 62 °F (2016)
Min Temperature 11 °F 14 °F -16 °F (1983)
Degree Days  
Heating Degree Days 38    
Moisture  
Dew Point 20 °F    
Average Humidity 78    
Maximum Humidity 96    
Minimum Humidity 52    
Precipitation  
Precipitation 0.01 in - - ()
Sea Level Pressure  
Sea Level Pressure 30.27 in    
Wind  
Wind Speed 7 mph (WNW)    
Max Wind Speed 22 mph    
Max Gust Speed 29 mph    
Visibility 9 miles    
Events      
Averages and records for this station are not official NWS values.
T = Trace of Precipitation, MM = Missing Value Source: NWS Daily Summary

Daily Weather History Graph

Daily Weather History Graph

Search for Another Location

Airport or City:

Trip Planner

Search our weather history database for the weather conditions in past years. The results will help you decide how hot, cold, wet, or windy it might be!

Date:

Astronomy

Dec. 25, 2013 Rise Set
Actual Time 7:48 AM CST 5:06 PM CST
Civil Twilight 7:17 AM CST 5:37 PM CST
Nautical Twilight 6:43 AM CST 6:11 PM CST
Astronomical Twilight 6:10 AM CST 6:44 PM CST
Moon 12:16 AM CST (12/25) 12:11 PM CST (12/25)
Length of Visible Light 10h 19m
Length of Day
9h 18m
Waning Gibbous, 48% of the Moon is Illuminated
Dec 25
Waning Gibbous
Jan 1
New
Jan 7
First Quarter
Jan 15
Full
Jan 23
Last Quarter

Hourly Weather History & Observations

Time (CST) Temp. Windchill Dew Point Humidity Pressure Visibility Wind Dir Wind Speed Gust Speed Precip Events Conditions
12:15 AM 26.6 °F 20.0 °F 24.8 °F 93% 30.24 in 5.0 mi WNW 5.8 mph - N/A   Mostly Cloudy
12:35 AM 27.0 °F 20.5 °F 25.0 °F 92% 30.23 in 5.0 mi NW 5.8 mph - N/A   Mostly Cloudy
12:55 AM 26.4 °F 16.6 °F 23.0 °F 87% 30.23 in 7.0 mi NNW 10.4 mph - N/A   Scattered Clouds
1:15 AM 25.7 °F 16.4 °F 21.7 °F 85% 30.24 in 10.0 mi NW 9.2 mph - N/A   Clear
1:35 AM 24.4 °F 16.5 °F 20.8 °F 86% 30.24 in 10.0 mi NW 6.9 mph - N/A   Clear
1:55 AM 23.7 °F 15.6 °F 20.3 °F 87% 30.24 in 10.0 mi NW 6.9 mph - N/A   Scattered Clouds
2:15 AM 21.9 °F 14.5 °F 19.2 °F 89% 30.24 in 10.0 mi WNW 5.8 mph - N/A   Scattered Clouds
2:35 AM 18.3 °F 11.5 °F 15.4 °F 89% 30.25 in 10.0 mi North 4.6 mph - N/A   Clear
2:55 AM 17.2 °F 10.2 °F 15.6 °F 93% 30.26 in 10.0 mi NW 4.6 mph - N/A   Clear
3:15 AM 15.8 °F 7.2 °F 14.9 °F 96% 30.25 in 10.0 mi NW 5.8 mph - N/A   Clear
3:35 AM 15.1 °F 9.4 °F 13.8 °F 95% 30.25 in 10.0 mi West 3.5 mph - N/A   Clear
3:55 AM 16.5 °F - 14.9 °F 93% 30.25 in 7.0 mi Calm Calm - N/A   Clear
4:15 AM 14.9 °F - 13.5 °F 94% 30.24 in 7.0 mi Calm Calm - N/A   Clear
4:35 AM 15.1 °F 9.4 °F 14.0 °F 95% 30.25 in 3.0 mi WSW 3.5 mph - N/A   Clear
4:55 AM 13.6 °F 6.0 °F 12.4 °F 95% 30.27 in 7.0 mi West 4.6 mph - N/A   Clear
5:15 AM 12.7 °F 5.0 °F 10.8 °F 92% 30.27 in 7.0 mi West 4.6 mph - N/A   Clear
5:35 AM 11.8 °F 5.7 °F 9.9 °F 92% 30.26 in 7.0 mi WNW 3.5 mph - N/A   Clear
5:55 AM 14.9 °F - 13.6 °F 95% 30.25 in 5.0 mi Calm Calm - N/A   Clear
6:15 AM 12.0 °F - 10.2 °F 92% 30.25 in 7.0 mi Calm Calm - N/A   Clear
6:35 AM 14.4 °F 6.9 °F 12.9 °F 94% 30.25 in 7.0 mi South 4.6 mph - N/A   Clear
6:55 AM 12.2 °F 4.3 °F 10.2 °F 92% 30.26 in 10.0 mi SSW 4.6 mph - N/A   Clear
7:15 AM 14.0 °F 6.5 °F 12.2 °F 93% 30.25 in 10.0 mi South 4.6 mph - N/A   Clear
7:35 AM 14.0 °F 5.1 °F 12.2 °F 93% 30.25 in 10.0 mi South 5.8 mph - N/A   Clear
7:55 AM 13.3 °F 5.6 °F 11.5 °F 93% 30.26 in 7.0 mi South 4.6 mph - N/A   Clear
8:15 AM 13.8 °F 6.2 °F 11.8 °F 92% 30.26 in 7.0 mi SW 4.6 mph - N/A   Clear
8:35 AM 15.4 °F 9.8 °F 13.5 °F 92% 30.27 in 10.0 mi SSW 3.5 mph - N/A   Clear
8:55 AM 17.6 °F 9.3 °F 15.6 °F 92% 30.27 in 10.0 mi WSW 5.8 mph - N/A   Clear
9:15 AM 20.5 °F 15.6 °F 18.5 °F 92% 30.27 in 10.0 mi West 3.5 mph - N/A   Clear
9:35 AM 24.1 °F 15.2 °F 21.7 °F 91% 30.27 in 10.0 mi West 8.1 mph - N/A   Clear
9:55 AM 26.6 °F 18.2 °F 23.5 °F 88% 30.28 in 10.0 mi West 8.1 mph - N/A   Clear
10:15 AM 30.2 °F 22.6 °F 25.0 °F 81% 30.28 in 10.0 mi West 8.1 mph - N/A   Clear
10:35 AM 32.7 °F 25.7 °F 25.5 °F 75% 30.29 in 10.0 mi West 8.1 mph - N/A   Clear
10:55 AM 36.0 °F 28.5 °F 26.6 °F 69% 30.29 in 10.0 mi WNW 10.4 mph - 0.01 in   Clear
11:15 AM 38.7 °F 31.4 °F 26.2 °F 61% 30.29 in 10.0 mi NW 11.5 mph 17.3 mph N/A   Clear
11:35 AM 39.6 °F 32.1 °F 27.0 °F 61% 30.28 in 10.0 mi NW 12.7 mph 24.2 mph N/A   Clear
11:55 AM 40.5 °F 32.5 °F 27.5 °F 60% 30.28 in 10.0 mi NW 15.0 mph - N/A   Clear
12:15 PM 41.0 °F 31.9 °F 27.7 °F 59% 30.28 in 10.0 mi NW 19.6 mph 24.2 mph N/A   Clear
12:35 PM 41.0 °F 32.5 °F 27.5 °F 59% 30.27 in 10.0 mi NW 17.3 mph 23.0 mph N/A   Clear
12:55 PM 41.5 °F 32.6 °F 28.0 °F 59% 30.27 in 10.0 mi NW 19.6 mph - N/A   Clear
1:15 PM 42.3 °F 33.3 °F 27.5 °F 56% 30.26 in 10.0 mi NW 20.7 mph 26.5 mph N/A   Clear
1:35 PM 43.0 °F 34.0 °F 28.2 °F 56% 30.26 in 10.0 mi NNW 21.9 mph - N/A   Clear
1:55 PM 43.2 °F 34.2 °F 27.0 °F 53% 30.26 in 10.0 mi NW 21.9 mph 26.5 mph N/A   Clear
2:15 PM 43.2 °F 35.0 °F 28.0 °F 55% 30.26 in 10.0 mi NW 18.4 mph 25.3 mph N/A   Scattered Clouds
2:35 PM 42.8 °F 34.3 °F 26.6 °F 53% 30.26 in 10.0 mi NW 19.6 mph 28.8 mph N/A   Scattered Clouds
2:55 PM 41.7 °F 33.1 °F 26.6 °F 55% 30.27 in 10.0 mi NNW 18.4 mph 24.2 mph N/A   Clear
3:15 PM 42.3 °F 33.8 °F 26.6 °F 54% 30.27 in 10.0 mi NNW 18.4 mph 24.2 mph N/A   Clear
3:35 PM 41.9 °F 33.4 °F 26.2 °F 54% 30.28 in 10.0 mi NNW 18.4 mph 24.2 mph N/A   Clear
3:55 PM 41.9 °F 33.4 °F 25.5 °F 52% 30.28 in 10.0 mi NW 18.4 mph 21.9 mph N/A   Clear
4:15 PM 41.2 °F 33.7 °F 25.3 °F 53% 30.29 in 10.0 mi NW 13.8 mph 20.7 mph N/A   Clear
4:35 PM 39.4 °F 32.7 °F 25.2 °F 57% 30.29 in 10.0 mi NW 10.4 mph - N/A   Clear
4:55 PM 36.5 °F 29.7 °F 24.8 °F 63% 30.29 in 10.0 mi NW 9.2 mph - N/A   Clear
5:15 PM 35.6 °F 28.0 °F 23.5 °F 62% 30.30 in 10.0 mi NW 10.4 mph - N/A   Clear
5:35 PM 32.0 °F 24.8 °F 22.8 °F 69% 30.30 in 10.0 mi NW 8.1 mph - N/A   Clear
5:55 PM 30.6 °F 23.1 °F 22.1 °F 71% 30.30 in 10.0 mi NW 8.1 mph - N/A   Clear
6:15 PM 28.9 °F 22.8 °F 21.6 °F 74% 30.30 in 10.0 mi NW 5.8 mph - N/A   Clear
6:35 PM 28.0 °F 20.0 °F 21.0 °F 75% 30.30 in 10.0 mi NW 8.1 mph - N/A   Clear
6:55 PM 24.6 °F 18.8 °F 19.9 °F 82% 30.31 in 10.0 mi NW 4.6 mph - N/A   Clear
7:15 PM 26.6 °F - 20.3 °F 77% 30.31 in 10.0 mi Calm Calm - N/A   Clear
7:35 PM 28.6 °F 24.8 °F 20.8 °F 73% 30.32 in 10.0 mi WNW 3.5 mph - N/A   Clear
7:55 PM 23.4 °F - 18.7 °F 82% 30.32 in 10.0 mi Calm Calm - N/A   Clear
8:15 PM 25.9 °F - 19.9 °F 78% 30.32 in 10.0 mi Calm Calm - N/A   Clear
8:35 PM 25.5 °F - 19.6 °F 78% 30.32 in 10.0 mi Calm Calm - N/A   Clear
8:55 PM 21.9 °F - 17.6 °F 83% 30.32 in 10.0 mi Calm Calm - N/A   Clear
9:15 PM 22.6 °F - 17.8 °F 82% 30.32 in 10.0 mi Calm Calm - N/A   Clear
9:35 PM 23.4 °F - 18.5 °F 82% 30.31 in 10.0 mi Calm Calm - N/A   Clear
9:55 PM 21.6 °F - 16.3 °F 80% 30.30 in 10.0 mi Calm Calm - N/A   Clear
10:15 PM 21.0 °F 16.2 °F 16.7 °F 83% 30.30 in 10.0 mi South 3.5 mph - N/A   Clear
10:35 PM 21.6 °F 14.0 °F 17.4 °F 84% 30.30 in 10.0 mi SSW 5.8 mph - N/A   Clear
10:55 PM 21.9 °F 17.2 °F 17.8 °F 84% 30.29 in 10.0 mi SE 3.5 mph - N/A   Clear
11:15 PM 18.7 °F 13.5 °F 14.7 °F 85% 30.29 in 10.0 mi SSW 3.5 mph - N/A   Clear
11:35 PM 21.9 °F 17.2 °F 17.1 °F 82% 30.29 in 10.0 mi South 3.5 mph - N/A   Clear
11:55 PM 22.3 °F 17.6 °F 17.4 °F 82% 30.28 in 10.0 mi South 3.5 mph - N/A   Clear